{"data":{"norad_id":54865,"intl_designator":"2022-177AX","name":"STARLINK-5411","alt_names":[],"object_type":"PAYLOAD","status":"ACTIVE","operator":null,"country":"US","launch_date":"2022-12-28","launch_site_code":"AFETR","launch_vehicle":null,"mission":null,"orbit_class":"UNKNOWN","rcs_meters":null,"size_class":null,"mass_kg":null,"dimensions":null,"purposes":["comms"],"wikipedia_slug":null,"has_3d_model":false,"image_url":null,"decayed_at":null,"tle_current":{"epoch":"2026-09-20T22:49:39.818784Z","epoch_age_seconds":53703,"freshness":"FRESH","line1":"1 54865U 22177AX  26263.95115531  .00000187  00000+0  16324-4 0  9991","line2":"2 54865  43.0021  98.8183 0001915 254.1751 105.8889 15.27576079206958","mean_motion":15.27576079,"eccentricity":0.0001915,"inclination_deg":43.0021,"raan_deg":98.8183,"arg_perigee_deg":254.1751,"mean_anomaly_deg":105.8889,"bstar":1.6324e-5,"rev_number":20695,"period_min":94.266990678636,"perigee_km":481.74691756356,"apogee_km":484.37475633511,"semimajor_km":6861.1978369493,"source":"CELESTRAK","updated_at":"2026-09-21T09:00:33.161171Z"}}}